sat.trackr.live / text

‹ back to catalog

STARLINK-4125

NORAD 53244 · 2022-086C

PAYLOAD ACTIVE UNKNOWN

§ Identity

Operator
Country
US
Launch date
2022-07-24
Launch site
AFETR
Launch vehicle
Mass (kg)
RCS (m²)

Purposes: comms

External: N2YO · Heavens-Above · Gunter

§ Orbital elements

Epoch: 2026-09-20T00:45:55.220832Z

Period
94.01 min
Inclination
53.1605°
Eccentricity
0.0001144
Mean motion
15.31698159 rev/d
Perigee alt
470.0 km
Apogee alt
471.5 km
Semi-major
6,848.9 km
B*
7.6945e-6
RAAN
39.0014°
Arg perigee
73.9843°
Mean anomaly
286.1285°
Rev number
23,075

§ Raw data

STARLINK-41251 53244U 22086C   26263.03188913 -.00000126  00000+0  76945-5 0  99932 53244  53.1605  39.0014 0001144  73.9843 286.1285 15.31698159230758

JSON: /api/v1/satellites/53244 · /tle

For live sub-satellite position, see the globe view (requires WebGL).

§ Visibility from observer

Set your observer location to see the next 7 days of passes ≥ 10°. The values pass through the URL so the page stays shareable.

No JS? Fill the form by hand. The geolocation button needs JavaScript.